When you browse on this site, cookies collect data to enhance your experience and personalize the content and advertising you see.
Visit our Privacy Policy to learn more. By continuing to use the site, you agree to this use of cookies and data.
EN

Hourly Weather Bochotnica

Today, 5 July, Sunday

Time Temperature Precipitation Wind Pressure Humidity
00:00 +17°C° 0 mm 2 mps 750 mmHg 78%
01:00 +17°C° 0 mm 2 mps 750 mmHg 80%
02:00 +17°C° 0 mm 2 mps 750 mmHg 81%
03:00 +16°C° 0 mm 2 mps 750 mmHg 82%
04:00 +16°C° 0 mm 2 mps 749 mmHg 83%
05:00 +18°C° 0 mm 3 mps 749 mmHg 80%
06:00 +20°C° 0 mm 3 mps 750 mmHg 78%
07:00 +21°C° 0 mm 3 mps 750 mmHg 76%
08:00 +24°C° 0 mm 3 mps 750 mmHg 72%
09:00 +25°C° 0 mm 3 mps 750 mmHg 68%
10:00 +26°C° 0 mm 4 mps 750 mmHg 64%
11:00 +27°C° 0 mm 4 mps 749 mmHg 62%
12:00 +28°C° 0 mm 4 mps 749 mmHg 60%
13:00 +28°C° 0 mm 4 mps 749 mmHg 58%
14:00 +28°C° 0 mm 4 mps 748 mmHg 60%
15:00 +28°C° 0 mm 4 mps 748 mmHg 61%
16:00 +28°C° 0 mm 4 mps 748 mmHg 63%
17:00 +27°C° 0 mm 3 mps 748 mmHg 68%
18:00 +26°C° 0 mm 3 mps 748 mmHg 74%
19:00 +25°C° 0 mm 2 mps 747 mmHg 80%
20:00 +24°C° 0 mm 2 mps 748 mmHg 81%
21:00 +23°C° 0 mm 2 mps 748 mmHg 83%
22:00 +21°C° 0 mm 2 mps 748 mmHg 85%
23:00 +20°C° 0 mm 2 mps 748 mmHg 87%

Tomorrow, 6 July, Monday

Time Temperature Precipitation Wind Pressure Humidity
00:00 +20°C° 0 mm 2 mps 748 mmHg 89%
01:00 +20°C° 0 mm 2 mps 747 mmHg 90%
02:00 +19°C° 0 mm 2 mps 747 mmHg 91%
03:00 +19°C° 0 mm 2 mps 747 mmHg 93%
04:00 +19°C° 0 mm 2 mps 747 mmHg 94%
05:00 +20°C° 0 mm 2 mps 747 mmHg 89%
06:00 +22°C° 0 mm 3 mps 747 mmHg 85%
07:00 +24°C° 0 mm 3 mps 747 mmHg 81%
08:00 +25°C° 0.2 mm 3 mps 746 mmHg 79%
09:00 +25°C° 0.2 mm 3 mps 746 mmHg 77%
10:00 +26°C° 0.2 mm 3 mps 746 mmHg 75%
11:00 +26°C° 0.2 mm 3 mps 746 mmHg 71%
12:00 +27°C° 0.2 mm 4 mps 745 mmHg 68%
13:00 +28°C° 0.2 mm 4 mps 745 mmHg 65%
14:00 +27°C° 0.2 mm 4 mps 745 mmHg 67%
15:00 +26°C° 0.2 mm 5 mps 745 mmHg 70%
16:00 +25°C° 0.2 mm 5 mps 745 mmHg 73%
17:00 +23°C° 0 mm 4 mps 745 mmHg 75%
18:00 +22°C° 0 mm 3 mps 745 mmHg 77%
19:00 +21°C° 0 mm 2 mps 746 mmHg 79%
20:00 +20°C° 0 mm 3 mps 746 mmHg 77%
21:00 +20°C° 0 mm 3 mps 746 mmHg 75%
22:00 +19°C° 0 mm 3 mps 746 mmHg 73%
23:00 +19°C° 0 mm 4 mps 747 mmHg 70%

Day after tomorrow, 7 July, Tuesday

Time Temperature Precipitation Wind Pressure Humidity
00:00 +18°C° 0 mm 4 mps 747 mmHg 67%
01:00 +18°C° 0 mm 4 mps 748 mmHg 65%
02:00 +17°C° 0 mm 4 mps 748 mmHg 65%
03:00 +15°C° 0 mm 4 mps 748 mmHg 66%
04:00 +14°C° 0 mm 4 mps 748 mmHg 67%
05:00 +15°C° 0 mm 4 mps 748 mmHg 68%
06:00 +15°C° 0 mm 4 mps 749 mmHg 70%
07:00 +16°C° 0 mm 5 mps 749 mmHg 72%
08:00 +17°C° 0 mm 4 mps 749 mmHg 70%
09:00 +18°C° 0 mm 4 mps 749 mmHg 69%
10:00 +18°C° 0 mm 4 mps 750 mmHg 67%
11:00 +19°C° 0.1 mm 4 mps 749 mmHg 65%
12:00 +19°C° 0.1 mm 4 mps 749 mmHg 63%
13:00 +20°C° 0.1 mm 4 mps 749 mmHg 61%
14:00 +20°C° 0.1 mm 4 mps 749 mmHg 63%
15:00 +20°C° 0.1 mm 4 mps 749 mmHg 64%
16:00 +20°C° 0.1 mm 3 mps 749 mmHg 65%
17:00 +19°C° 0.1 mm 4 mps 750 mmHg 70%
18:00 +18°C° 0.1 mm 4 mps 750 mmHg 76%
19:00 +17°C° 0.1 mm 4 mps 750 mmHg 81%
20:00 +14°C° 0 mm 3 mps 750 mmHg 82%
21:00 +13°C° 0 mm 3 mps 751 mmHg 84%
22:00 +12°C° 0 mm 3 mps 751 mmHg 86%
23:00 +12°C° 0 mm 2 mps 751 mmHg 87%

8 July, Wednesday

Time Temperature Precipitation Wind Pressure Humidity
00:00 +12°C° 0 mm 2 mps 751 mmHg 87%
01:00 +10°C° 0 mm 2 mps 751 mmHg 88%
02:00 +10°C° 0 mm 2 mps 751 mmHg 89%
03:00 +9°C° 0 mm 2 mps 751 mmHg 89%
04:00 +9°C° 0 mm 2 mps 751 mmHg 89%
05:00 +12°C° 0 mm 2 mps 751 mmHg 84%
06:00 +14°C° 0 mm 2 mps 751 mmHg 78%
07:00 +15°C° 0 mm 2 mps 751 mmHg 73%
08:00 +17°C° 0 mm 2 mps 751 mmHg 68%
09:00 +18°C° 0 mm 2 mps 751 mmHg 62%
10:00 +19°C° 0 mm 2 mps 752 mmHg 57%
11:00 +20°C° 0 mm 3 mps 751 mmHg 56%
12:00 +20°C° 0 mm 3 mps 751 mmHg 55%
13:00 +21°C° 0 mm 3 mps 751 mmHg 55%
14:00 +21°C° 0 mm 3 mps 751 mmHg 56%
15:00 +21°C° 0 mm 3 mps 751 mmHg 58%
16:00 +21°C° 0 mm 3 mps 750 mmHg 60%
17:00 +20°C° 0.1 mm 2 mps 751 mmHg 66%
18:00 +19°C° 0.1 mm 2 mps 751 mmHg 72%
19:00 +19°C° 0.1 mm 1 mps 751 mmHg 78%
20:00 +18°C° 0.1 mm 1 mps 751 mmHg 82%
21:00 +16°C° 0.1 mm 2 mps 751 mmHg 87%
22:00 +15°C° 0.1 mm 2 mps 751 mmHg 91%
23:00 +15°C° 0.1 mm 2 mps 751 mmHg 91%

9 July, Thursday

Time Temperature Precipitation Wind Pressure Humidity
00:00 +15°C° 0.1 mm 2 mps 752 mmHg 92%
01:00 +14°C° 0.1 mm 2 mps 752 mmHg 92%
02:00 +14°C° 0 mm 2 mps 752 mmHg 94%
03:00 +13°C° 0 mm 2 mps 752 mmHg 95%
04:00 +13°C° 0 mm 2 mps 752 mmHg 96%
05:00 +14°C° 0 mm 2 mps 752 mmHg 92%
06:00 +15°C° 0 mm 2 mps 753 mmHg 88%
07:00 +16°C° 0 mm 2 mps 753 mmHg 85%
08:00 +17°C° 0 mm 2 mps 753 mmHg 79%
09:00 +18°C° 0 mm 2 mps 753 mmHg 73%
10:00 +19°C° 0 mm 2 mps 753 mmHg 68%
11:00 +20°C° 0 mm 2 mps 753 mmHg 64%
12:00 +21°C° 0 mm 2 mps 753 mmHg 60%
13:00 +23°C° 0 mm 1 mps 753 mmHg 57%
14:00 +23°C° 0 mm 1 mps 753 mmHg 56%
15:00 +23°C° 0 mm 1 mps 752 mmHg 55%
16:00 +22°C° 0 mm 0 mps 752 mmHg 55%
17:00 +23°C° 0 mm 1 mps 752 mmHg 60%
18:00 +21°C° 0 mm 1 mps 752 mmHg 66%
19:00 +20°C° 0 mm 1 mps 752 mmHg 72%
20:00 +18°C° 0 mm 2 mps 752 mmHg 75%
21:00 +17°C° 0 mm 2 mps 752 mmHg 78%
22:00 +16°C° 0 mm 3 mps 752 mmHg 81%
23:00 +16°C° 0 mm 3 mps 752 mmHg 83%

10 July, Friday

Time Temperature Precipitation Wind Pressure Humidity
00:00 +14°C° 0 mm 3 mps 752 mmHg 84%
01:00 +14°C° 0 mm 3 mps 752 mmHg 86%
02:00 +14°C° 0 mm 3 mps 751 mmHg 88%
03:00 +14°C° 0 mm 3 mps 751 mmHg 89%
04:00 +13°C° 0 mm 3 mps 751 mmHg 91%
05:00 +16°C° 0 mm 3 mps 751 mmHg 87%
06:00 +18°C° 0 mm 3 mps 751 mmHg 84%
07:00 +20°C° 0 mm 4 mps 751 mmHg 80%
08:00 +21°C° 0.1 mm 4 mps 751 mmHg 77%
09:00 +23°C° 0.1 mm 4 mps 750 mmHg 73%
10:00 +25°C° 0.1 mm 4 mps 750 mmHg 69%
11:00 +25°C° 0.1 mm 4 mps 750 mmHg 67%
12:00 +26°C° 0.1 mm 4 mps 749 mmHg 66%
13:00 +26°C° 0.1 mm 4 mps 749 mmHg 64%
14:00 +27°C° 0.3 mm 4 mps 748 mmHg 64%
15:00 +27°C° 0.3 mm 4 mps 748 mmHg 65%
16:00 +27°C° 0.3 mm 4 mps 748 mmHg 66%
17:00 +26°C° 0.2 mm 3 mps 748 mmHg 71%
18:00 +25°C° 0.2 mm 3 mps 748 mmHg 76%
19:00 +24°C° 0.2 mm 3 mps 747 mmHg 81%
20:00 +22°C° 0.1 mm 3 mps 747 mmHg 83%
21:00 +21°C° 0.1 mm 4 mps 747 mmHg 85%
22:00 +21°C° 0.1 mm 4 mps 748 mmHg 87%
23:00 +20°C° 0.3 mm 4 mps 747 mmHg 89%
Show more